This is the latest recevied weather packets stored in our database for station/object N5PA. If no packets are shown the sender has not sent any weather packets the latest 10 day(s).
| Time | Temp. | Humidity | Pressure | Rain* | Wind** | Luminosity | Snow |
|---|---|---|---|---|---|---|---|
| 1777846805 | 24.44° C | 33% | 1018 hPa | 0 mm | - | 1020 W/m² | - |
| 1777846505 | 24.44° C | 32% | 1018.1 hPa | 0 mm | - | 1014 W/m² | - |
| 1777846206 | 24.44° C | 32% | 1018.1 hPa | 0 mm | - | 1018 W/m² | - |
| 1777845906 | 24.44° C | 33% | 1018.1 hPa | 0 mm | - | 1018 W/m² | - |
| 1777845605 | 24.44° C | 33% | 1018.1 hPa | 0 mm | - | 1020 W/m² | - |
| 1777845305 | 23.89° C | 32% | 1018.2 hPa | 0 mm | - | 1020 W/m² | - |
| 1777845005 | 24.44° C | 33% | 1018.3 hPa | 0 mm | - | 1021 W/m² | - |
| 1777844706 | 24.44° C | 32% | 1018.3 hPa | 0 mm | - | 1014 W/m² | - |
| 1777844405 | 24.44° C | 32% | 1018.3 hPa | 0 mm | - | 1014 W/m² | - |
| 1777844106 | 24.44° C | 33% | 1018.4 hPa | 0 mm | - | 1016 W/m² | - |
| 1777843805 | 24.44° C | 35% | 1018.5 hPa | 0 mm | - | 1014 W/m² | - |
| 1777843506 | 23.89° C | 33% | 1018.5 hPa | 0 mm | - | 1016 W/m² | - |
| 1777843205 | 24.44° C | 34% | 1018.7 hPa | 0 mm | - | 1016 W/m² | - |
| 1777842905 | 24.44° C | 35% | 1018.7 hPa | 0 mm | - | 1014 W/m² | - |
| 1777842604 | 23.89° C | 35% | 1018.7 hPa | 0 mm | - | 1014 W/m² | - |
| 1777842304 | 23.89° C | 33% | 1018.8 hPa | 0 mm | - | 1014 W/m² | - |
| 1777842005 | 24.44° C | 32% | 1018.9 hPa | 0 mm | - | 1014 W/m² | - |
| 1777841705 | 24.44° C | 33% | 1019 hPa | 0 mm | - | 1014 W/m² | - |
| 1777841405 | 24.44° C | 32% | 1019.1 hPa | 0 mm | - | 1013 W/m² | - |
| 1777841104 | 23.89° C | 35% | 1019.2 hPa | 0 mm | - | 1014 W/m² | - |
| 1777840805 | 23.89° C | 32% | 1019.2 hPa | 0 mm | - | 1014 W/m² | - |
| 1777840507 | 23.89° C | 32% | 1019.4 hPa | 0 mm | - | 1014 W/m² | - |
| 1777840207 | 23.89° C | 35% | 1019.4 hPa | 0 mm | - | 1011 W/m² | - |
| 1777839907 | 23.89° C | 32% | 1019.5 hPa | 0 mm | - | 1014 W/m² | - |
| 1777839607 | 23.33° C | 32% | 1019.5 hPa | 0 mm | - | 1014 W/m² | - |
* Rain latest hour (hover to see other rain measurements)
** Current wind speed in m/s (hover to see current wind gust speed)